GWO459 Weather Reports


Display with metric or nautical units.
time (UTC)temp
F
wind
direction
speed
MPH
gust
MPH
rain 1hr
in
rain 24hr
in
rain mn
in
humidity
%
barometer
mb
20260506022703 70 26 2.0 4.0 0.00 0.31 0.31 79 1027.0
20260506021803 70 23 3.0 7.0 0.00 0.31 0.31 78 1027.1
20260506020903 70 23 3.0 5.0 0.00 0.31 0.31 81 1027.1
20260506020004 69 24 2.0 5.0 0.00 0.31 0.31 80 1027.1
20260506015403 69 14 2.0 5.0 0.00 0.31 0.31 81 1027.1
20260506014503 69 18 3.0 7.0 0.00 0.31 0.31 80 1027.2
20260506013603 69 38 3.0 7.0 0.00 0.31 0.31 83 1027.1
20260506012703 68 27 3.0 6.0 0.00 0.31 0.31 82 1027.2
20260506011803 68 48 2.0 7.0 0.00 0.31 0.31 84 1027.2
20260506010903 68 62 1.0 7.0 0.00 0.31 0.31 85 1027.4
20260506010003 67 0 0.0 3.0 0.00 0.31 0.31 87 1027.5
20260506005617 66 0 0.0 2.0 0.00 0.31 0.31 88 1027.6
20260506004504 66 0 0.0 1.0 0.00 0.31 0.31 90 1027.7
20260506003818 65 0 0.0 2.0 0.00 0.31 0.31 89 1027.8
20260506002703 65 0 0.0 3.0 0.00 0.31 0.31 91 1028.0
20260506001803 65 0 0.0 1.0 0.01 0.31 0.31 90 1028.3
20260506000903 65 0 0.0 1.0 0.02 0.31 0.31 91 1028.4
20260506000003 65 0 0.0 2.0 0.02 0.31 0.31 92 1028.6
20260505235403 64 0 0.0 0.0 0.03 0.31 0.31 92 1028.6
20260505234504 64 0 0.0 2.0 0.03 0.31 0.31 93 1028.6
20260505233603 64 0 0.0 1.0 0.03 0.31 0.31 94 1028.7
20260505232918 63 0 0.0 1.0 0.04 0.31 0.31 93 1028.8
20260505231804 63 0 0.0 0.0 0.04 0.30 0.30 93 1029.0
20260505231117 63 0 0.0 2.0 0.05 0.30 0.30 94 1029.1
20260505230003 62 0 0.0 2.0 0.06 0.28 0.28 94 1029.1
20260505225403 62 0 0.0 2.0 0.06 0.28 0.28 93 1029.2
20260505224503 62 41 0.0 2.0 0.06 0.28 0.28 94 1029.2
20260505223603 62 40 0.0 3.0 0.06 0.28 0.28 94 1029.2
20260505222703 62 0 0.0 2.0 0.06 0.27 0.27 94 1029.2
20260505221803 62 0 0.0 2.0 0.05 0.26 0.26 94 1029.3
20260505221117 62 0 0.0 2.0 0.05 0.25 0.25 94 1029.3
20260505220003 62 0 0.0 2.0 0.02 0.22 0.23 94 1029.3
20260505215403 62 0 0.0 1.0 0.02 0.22 0.22 94 1029.3
20260505214503 62 0 0.0 0.0 0.02 0.21 0.21 94 1029.2
20260505213603 62 37 0.0 4.0 0.02 0.21 0.21 94 1029.3
20260505212918 62 34 1.0 4.0 0.02 0.21 0.21 94 1029.2
20260505211803 61 31 0.0 3.0 0.03 0.21 0.21 94 1029.3
20260505210903 61 0 0.0 3.0 0.03 0.20 0.20 94 1029.4
20260505210003 61 0 0.0 2.0 0.05 0.20 0.20 94 1029.4
20260505205403 61 0 0.0 2.0 0.06 0.20 0.20 94 1029.4
20260505204717 61 0 0.0 2.0 0.07 0.20 0.20 94 1029.4
20260505203603 60 0 0.0 2.0 0.07 0.20 0.20 94 1029.4
20260505202703 60 0 0.0 0.0 0.06 0.19 0.19 94 1029.4
20260505201803 59 0 0.0 0.0 0.06 0.18 0.18 94 1029.3
20260505200903 59 0 0.0 0.0 0.05 0.17 0.17 94 1029.4
20260505200217 59 0 0.0 0.0 0.03 0.16 0.16 94 1029.3
20260505195403 59 0 0.0 0.0 0.01 0.13 0.13 93 1029.1
20260505194503 59 0 0.0 0.0 0.00 0.13 0.13 93 1029.0
20260505193603 59 0 0.0 0.0 0.02 0.13 0.13 93 1028.9
20260505192919 59 0 0.0 0.0 0.05 0.13 0.13 94 1028.9
20260505191804 58 0 0.0 0.0 0.06 0.13 0.13 93 1028.8
20260505191118 58 0 0.0 0.0 0.06 0.13 0.13 93 1028.7
20260505190004 58 0 0.0 0.0 0.06 0.13 0.13 93 1028.8
20260505185403 58 0 0.0 1.0 0.06 0.13 0.13 93 1028.8
20260505184503 58 0 0.0 1.0 0.06 0.13 0.13 93 1028.7
20260505183603 58 0 0.0 0.0 0.05 0.11 0.11 93 1028.7
20260505182703 58 0 0.0 0.0 0.02 0.08 0.08 93 1028.7
20260505181803 58 0 0.0 0.0 0.01 0.07 0.07 93 1028.6
20260505180903 58 0 0.0 0.0 0.00 0.06 0.06 93 1028.6
20260505180003 58 0 0.0 0.0 0.00 0.06 0.06 93 1028.6
20260505175403 57 0 0.0 0.0 0.00 0.06 0.06 93 1028.6
20260505174503 57 0 0.0 0.0 0.00 0.06 0.06 93 1028.7
20260505173603 57 0 0.0 0.0 0.00 0.06 0.06 93 1028.7
20260505172703 57 0 0.0 0.0 0.00 0.06 0.06 93 1028.7
20260505171803 57 0 0.0 0.0 0.01 0.06 0.06 93 1028.7
20260505170903 57 0 0.0 0.0 0.02 0.06 0.06 93 1028.6
20260505170003 58 0 0.0 0.0 0.02 0.06 0.06 93 1028.7
20260505165403 58 0 0.0 0.0 0.02 0.06 0.06 93 1028.6
20260505164503 58 0 0.0 0.0 0.02 0.06 0.06 93 1028.6
20260505163818 58 0 0.0 0.0 0.02 0.06 0.06 93 1028.6
20260505162703 58 0 0.0 0.0 0.02 0.06 0.06 93 1028.6
20260505161803 57 0 0.0 1.0 0.02 0.06 0.06 93 1028.7
20260505160903 57 0 0.0 0.0 0.01 0.05 0.05 93 1028.7
20260505152703 57 0 0.0 0.0 0.00 0.04 0.04 92 1028.8
20260505151803 57 0 0.0 0.0 0.00 0.04 0.04 92 1028.9
20260505151118 57 0 0.0 0.0 0.01 0.04 0.04 92 1029.0
20260505150217 57 0 0.0 0.0 0.01 0.04 0.04 92 1029.1
20260505130217 55 0 0.0 0.0 0.00 0.00 0.00 91 1030.1
20260505124718 55 0 0.0 0.0 0.00 0.00 0.00 91 1030.3
20260505123817 55 0 0.0 0.0 0.00 0.00 0.00 91 1030.2
20260505122703 55 0 0.0 0.0 0.00 0.00 0.00 91 1030.3
20260505121803 55 0 0.0 0.0 0.00 0.00 0.00 91 1030.2
20260505121117 55 0 0.0 0.0 0.00 0.00 0.00 91 1030.3
20260505120004 55 0 0.0 0.0 0.00 0.00 0.00 91 1030.3
20260505115403 55 0 0.0 0.0 0.00 0.00 0.00 91 1030.3
20260505114503 54 0 0.0 0.0 0.00 0.00 0.00 90 1030.4
20260505113603 54 0 0.0 0.0 0.00 0.00 0.00 89 1030.4
20260505112703 54 0 0.0 0.0 0.00 0.00 0.00 89 1030.4
20260505111803 54 0 0.0 0.0 0.00 0.00 0.00 88 1030.5
20260505110903 54 0 0.0 0.0 0.00 0.00 0.00 89 1030.5
20260505101803 55 0 0.0 1.0 0.00 0.00 0.00 89 1030.9
20260505100903 55 0 0.0 1.0 0.00 0.00 0.00 88 1031.0
20260505100003 55 0 0.0 0.0 0.00 0.00 0.00 87 1031.0
20260505095403 55 0 0.0 0.0 0.00 0.00 0.00 87 1030.9
20260505094503 55 0 0.0 0.0 0.00 0.00 0.00 87 1030.9
20260505093603 55 0 0.0 0.0 0.00 0.00 0.00 87 1030.9
20260505092703 55 0 0.0 0.0 0.00 0.00 0.00 87 1031.0
20260505091803 55 0 0.0 0.0 0.00 0.00 0.00 87 1031.0
20260505090903 55 0 0.0 0.0 0.00 0.00 0.00 86 1030.9
20260505090003 55 0 0.0 0.0 0.00 0.00 0.00 86 1030.9
20260505085403 55 0 0.0 0.0 0.00 0.00 0.00 86 1030.8
20260505084503 56 0 0.0 0.0 0.00 0.00 0.00 86 1030.8
20260505083603 56 0 0.0 0.0 0.00 0.00 0.00 86 1030.7
20260505082703 56 0 0.0 0.0 0.00 0.00 0.00 85 1030.8
20260505081803 56 0 0.0 0.0 0.00 0.00 0.00 85 1030.8
20260505081117 56 0 0.0 0.0 0.00 0.00 0.00 85 1030.8
20260505080003 56 0 0.0 0.0 0.00 0.00 0.00 85 1030.8
20260505075403 57 0 0.0 0.0 0.00 0.00 0.00 85 1030.8
20260505074503 57 0 0.0 0.0 0.00 0.00 0.00 84 1030.7
20260505073603 57 0 0.0 0.0 0.00 0.00 0.00 84 1030.7
20260505072703 58 0 0.0 0.0 0.00 0.00 0.00 82 1030.5
20260505071803 58 0 0.0 0.0 0.00 0.00 0.00 82 1030.5
20260505070903 58 0 0.0 0.0 0.00 0.00 0.00 82 1030.4
20260505070003 58 0 0.0 0.0 0.00 0.00 0.00 81 1030.4
20260505065618 59 0 0.0 0.0 0.00 0.00 0.00 81 1030.4
20260505064503 59 0 0.0 0.0 0.00 0.00 0.00 81 1030.3
20260505063603 59 0 0.0 0.0 0.00 0.00 0.00 80 1030.4
20260505062703 60 0 0.0 0.0 0.00 0.00 0.00 79 1030.4
20260505061803 60 62 0.0 1.0 0.00 0.00 0.00 79 1030.3
20260505060903 61 61 1.0 2.0 0.00 0.00 0.00 78 1030.4
20260505060003 61 0 0.0 2.0 0.00 0.00 0.00 77 1030.4
20260505055617 61 0 0.0 0.0 0.00 0.00 0.00 77 1030.4
20260505054717 62 0 0.0 0.0 0.00 0.00 0.00 76 1030.4
20260505053603 63 0 0.0 0.0 0.00 0.00 0.00 74 1030.3
20260505052703 63 0 0.0 0.0 0.00 0.00 0.00 73 1030.2
20260505051803 64 0 0.0 0.0 0.00 0.00 0.00 72 1030.2
20260505050903 64 62 0.0 1.0 0.00 0.00 0.00 72 1030.2
20260505040904 66 25 1.0 4.0 0.00 0.00 0.00 67 1030.2
20260505040004 67 34 2.0 4.0 0.00 0.00 0.00 68 1030.3
20260505035403 67 63 2.0 5.0 0.00 0.00 0.00 67 1030.3
20260505034503 67 62 3.0 6.0 0.00 0.00 0.00 66 1030.4
20260505033603 68 31 4.0 6.0 0.00 0.00 0.00 66 1030.3
20260505032703 68 41 3.0 8.0 0.00 0.00 0.00 65 1030.3
20260505032019 68 34 2.0 5.0 0.00 0.00 0.00 66 1030.2
20260505030903 68 45 2.0 5.0 0.00 0.00 0.00 66 1030.2
20260505030003 68 64 2.0 6.0 0.00 0.00 0.00 65 1030.2
20260505025403 68 36 2.0 5.0 0.00 0.00 0.00 65 1030.2
20260505024503 68 40 2.0 5.0 0.00 0.00 0.00 66 1030.2